Air Resources Laboratory banner image
Air Resources Laboratory web site National Oceanic and Atmospheric Administration (NOAA)

ma roundup


Office: BOX

ASUS41 KBOX 211810
RWRBOX

REGIONAL WEATHER ROUNDUP
NATIONAL WEATHER SERVICE BOSTON/NORTON MA
100 PM EST WED NOV 21 2018

NOTE:  "FAIR" INDICATES FEW OR NO CLOUDS BELOW 12,000 FEET WITH NO
SIGNIFICANT WEATHER AND/OR OBSTRUCTIONS TO VISIBILITY.

MAZALL-211900-
EASTERN MASSACHUSETTS

CITY           SKY/WX    TMP DP  RH WIND       PRES   REMARKS
BOSTON         CLOUDY    41  25  53 SW18G24   29.87F
6HR MIN TEMP:  33; 6HR MAX TEMP:  41;

BEVERLY        CLOUDY    39  25  57 SW16      29.85F WCI  30
LAWRENCE       CLOUDY    39  25  57 SW15G22   29.86F WCI  31
BEDFORD        PTSUNNY   38  25  59 SW14      29.85F WCI  30
BLUE HILL        N/A     37  25  61 SW18G28   29.84F WCI  27
NORWOOD        CLOUDY    42  25  50 SW14G23   29.88F
MARSHFIELD     FAIR      41  28  60 SW10G18   29.88F
PLYMOUTH       PTSUNNY   41  29  62 SW16G26   29.90F
TAUNTON        CLOUDY    42  27  55 W12       29.90F
NEW BEDFORD    FAIR      42  30  62 W16G22    29.90F
$$

MAZALL-211900-
CAPE COD AND THE ISLANDS

CITY           SKY/WX    TMP DP  RH WIND       PRES   REMARKS
FALMOUTH       CLOUDY    43  28  56 SW23G32   29.90F
HYANNIS        PTSUNNY   44  30  57 SW15G23   29.89F
CHATHAM        FAIR      43  30  60 SW12G22   29.92F
PROVINCETOWN   FAIR      41  29  62 SW20      29.90F WCI  32
NANTUCKET      CLOUDY    45  32  60 SW18G24   29.93F
MARTHAS VNYRD  CLOUDY    44  32  62 SW14G22   29.92F
$$

MAZALL-211900-
CENTRAL AND WESTERN MASSACHUSETTS

CITY           SKY/WX    TMP DP  RH WIND       PRES   REMARKS
WORCESTER      CLOUDY    33  24  69 SW16G29   29.83F WCI  23
6HR MIN TEMP:  26; 6HR MAX TEMP:  33;

FITCHBURG      PTSUNNY   36  25  64 S15       29.85F WCI  27
ORANGE         PTSUNNY   37  25  61 S13       29.85F WCI  29
SPRINGFIELD    PTSUNNY   40  25  55 SW17      29.86F WCI  31
WESTFIELD      CLOUDY    38  24  57 SW14      29.87F WCI  30
NORTH ADAMS    CLOUDY    36  25  64 W14G22    29.84F WCI  27
PITTSFIELD     CLOUDY    35  24  64 SW10      29.82F WCI  27
$$

RIZALL-211900-
RHODE ISLAND

CITY           SKY/WX    TMP DP  RH WIND       PRES   REMARKS
PROVIDENCE     PTSUNNY   40  25  55 W18       29.92F WCI  31
6HR MIN TEMP:  31; 6HR MAX TEMP:  40;

NEWPORT        PTSUNNY   41  25  53 W10G20    29.92F
BLOCK ISLAND   CLOUDY   N/A N/A N/A W21       29.94
SMITHFIELD     CLOUDY    37  25  61 W10G21    29.89F WCI  30
WESTERLY       PTSUNNY   43  29  57 W16G24    29.93F
$$

CTZALL-211900-
CONNECTICUT

CITY           SKY/WX    TMP DP  RH WIND       PRES   REMARKS
BRADLEY INTL   PTSUNNY   40  25  55 SW15G26   29.89F WCI  32
6HR MIN TEMP:  31; 6HR MAX TEMP:  40;

HARTFORD       CLOUDY    42  25  50 SW9       29.92F
BRIDGEPORT     CLOUDY    43  26  51 W16G22    29.96F
DANBURY        CLOUDY    40  25  55 W13G21    29.95F
GROTON         CLOUDY    42  28  57 W22G29    29.93F
NEW HAVEN      CLOUDY    43  26  51 SW10G21   29.96F
CHESTER        FAIR      41  23  48 SW9G23    29.93F
MERIDEN        CLOUDY    41  24  51 SW10G22   29.94F
WILLIMANTIC    CLOUDY    39  26  59 SW7       29.91F
OXFORD         CLOUDY    38  25  59 W12G17    29.92F WCI  30
$$

MEZ002-015-021-024-NHZ003-005-008-011-012-014-VTZ005-008-211900-
NORTHERN NEW ENGLAND

CITY           SKY/WX    TMP DP  RH WIND       PRES   REMARKS
PORTLAND ME    CLOUDY    33  28  81 S13G22    29.81F WCI  24
6HR MIN TEMP:  25; 6HR MAX TEMP:  33;

BANGOR ME      CLOUDY    30  21  69 S9        29.77F WCI  22
CONCORD NH     CLOUDY    31  30  96 S8        29.81F WCI  23
MANCHESTER NH  CLOUDY    35  29  78 S9        29.81F WCI  28
NASHUA NH      PTSUNNY   37  30  75 VRB6      29.83F
PORTSMOUTH NH  CLOUDY    34  28  79 S8        29.82F WCI  27
JAFFREY NH     PTSUNNY   32  29  88 SW10      29.80F WCI  24
KEENE NH       PTSUNNY   35  27  72 S12       29.82F WCI  27
BURLINGTON VT  PTSUNNY   31  26  82 SW3       29.76F
MT. WASHINGTON SNOWSHWR   9   9 100 W45G56      N/A  VSB 1/16WCI -18
$$

NYZ052-076-211900-
EASTERN NEW YORK

CITY           SKY/WX    TMP DP  RH WIND       PRES   REMARKS
ALBANY         FLURRIES  39  26  59 SW16      29.87F WCI  30
6HR MIN TEMP:  31; 6HR MAX TEMP:  40; 6HR PCP: TRACE;

NEW YORK CITY  CLOUDY    44  23  43 W16G28    29.99F
6HR MIN TEMP:  38; 6HR MAX TEMP:  45;

$$

ANZALL-211900-
MARINE OBSERVATIONS

STATION/POSITION TIME  TEMP    WIND        PRES    VSBY  WAVE
                       AIR SEA DIR/SP/G                  HT/PER
                 (UTC) (F)     (DEG/KT/KT) (MB)    (MI)  (FT/S)
BOSTON BUOY      1750   41 50  220/ 19/ 23 1011.2F         2/ 3
BUZZARDS BAY     1700   41     250/ 25/ 28 1014.1F
NANTUCKET SOUND  1750   43 48  240/ 16/ 21 1013.0F         2/ 4
MASS BAY-STELLWA 1704   39 48  240/ 21/ 25 1011.0F  1 7/8  4/ 4
ISLE OF SHOALS   1700   36     220/ 27/ 31 1010.9F
S OF BLOCK IS    1743      55                N/A           6/ 6
$$

......................KEY.........................
  SKY/WX - SKY CONDITION/PRESENT WEATHER
  TMP    - TEMPERATURE IN FAHRENHEIT
  DWPT   - DEWPOINT IN FAHRENHEIT
  RH     - RELATIVE HUMIDITY IN PERCENT
  WIND   - DIRECTION AND SPEED IN MPH
  PRES   - MEAN SEA LEVEL PRESSURE IN INCHES OF HG
  WCI    - WIND CHILL INDEX
  VSB    - VISIBILITY IN MILES
  HX     - HEAT INDEX
  TC     - TEMPERATURE IN CELSIUS
  VRB    - VARIABLE WIND DIRECTION
  N/A    - NOT AVAILABLE




Office: GYX ASUS41 KGYX 211805 RWRGYX WEATHER ROUNDUP FOR MAINE AND NEW HAMPSHIRE NATIONAL WEATHER SERVICE GRAY ME 100 PM EST WED NOV 21 2018 MEZ002-005-006-010-012-015-018-020-021-024-026-027-029-211900- MAINE CITY SKY/WX TMP DP RH WIND PRES REMARKS PORTLAND CLOUDY 33 28 81 S13G22 29.81F 6HR MIN TEMP: 25; 6HR MAX TEMP: 33; SANFORD FAIR 34 29 82 SW14 29.81F BAR HARBOR CLOUDY 32 23 69 SW12G21 29.80F WISCASSET CLOUDY 33 28 81 SW7 29.82F 6HR MIN TEMP: 21; 6HR MAX TEMP: 33; ROCKLAND CLOUDY 33 26 75 W13 29.80F FRYEBURG FLURRIES 30 25 81 SW3 29.76F 6HR MIN TEMP: 15; 6HR MAX TEMP: 31; 6HR PCP: TRACE; LEWISTONAUBURN CLOUDY 33 25 72 S9 29.78F AUGUSTA CLOUDY 31 22 69 SW12G22 29.77F 6HR MIN TEMP: 23; 6HR MAX TEMP: 31; WATERVILLE PTSUNNY 31 23 72 MISG 29.73F BANGOR CLOUDY 30 21 69 S9 29.77F 6HR MIN TEMP: 22; 6HR MAX TEMP: 30; GREENVILLE N/A 25 16 68 VRB7 29.63F 6HR MIN TEMP: 14; 6HR MAX TEMP: 25; MILLINOCKET CLOUDY 28 16 60 SW3 29.74F 6HR MIN TEMP: 21; 6HR MAX TEMP: 28; HOULTON CLOUDY 24 15 68 SW9 29.72F 6HR MIN TEMP: 20; 6HR MAX TEMP: 25; 6HR PCP: TRACE; PRESQUE ISLE PTSUNNY 24 13 62 W10 29.72F WCI 14 6HR MIN TEMP: 20; 6HR MAX TEMP: 26; 6HR PCP: TRACE; FRENCHVILLE CLOUDY 21 8 57 SW15 29.66F WCI 8 6HR MIN TEMP: 18; 6HR MAX TEMP: 22; 6HR PCP: TRACE; CARIBOU CLOUDY 23 10 57 W9 29.70F 6HR MIN TEMP: 19; 6HR MAX TEMP: 24; $$ NHZ002-005-008-009-011-012-014-211900- NEW HAMPSHIRE CITY SKY/WX TMP DP RH WIND PRES REMARKS PORTSMOUTH CLOUDY 34 28 79 S8 29.82F ROCHESTER CLOUDY 32 30 92 S6 29.81F 6HR MIN TEMP: 23; 6HR MAX TEMP: 32; NASHUA PTSUNNY 37 30 75 VRB6 29.83F MANCHESTER CLOUDY 35 29 78 S9 29.81F 6HR MIN TEMP: 26; 6HR MAX TEMP: 35; CONCORD CLOUDY 31 30 96 S8 29.81F 6HR MIN TEMP: 17; 6HR MAX TEMP: 31; 6HR PCP: TRACE; LACONIA LGT SNOW 32 28 85 SW13 29.77F FOG PLYMOUTH LGT SNOW 29 27 92 NE3 29.77F BERLIN CLOUDY 32 23 69 SW8G18 29.65F 6HR MIN TEMP: 11; 6HR MAX TEMP: 33; 6HR PCP: TRACE; WHITEFIELD CLOUDY 32 25 75 SW9G18 29.67F 6HR MIN TEMP: 21; 6HR MAX TEMP: 32; 6HR PCP: TRACE; JAFFREY PTSUNNY 32 29 88 SW10 29.80F 6HR MIN TEMP: 24; 6HR MAX TEMP: 33; KEENE PTSUNNY 35 27 72 S12 29.82F LEBANON CLOUDY 33 26 75 S10 29.75F 6HR MIN TEMP: 19; 6HR MAX TEMP: 33; 6HR PCP: 0.02; MT WASHINGTON NOT AVBL $$ VTZ005-007-008-211900- VERMONT CITY SKY/WX TMP DP RH WIND PRES REMARKS ST JOHNSBURY N/A 29 26 89 MISG 29.68F MONTPELIER LGT SNOW 30 26 85 SW10G21 29.73F FOG BURLINGTON PTSUNNY 31 26 82 SW3 29.76F $$ MAZ007-012-024-CTZ003-RIZ002-NYZ038-NYZ072-211900- SOUTHERN NEW ENGLAND AND NY CITY SKY/WX TMP DP RH WIND PRES REMARKS BOSTON CLOUDY 41 25 53 SW18G24 29.87F WORCESTER CLOUDY 33 24 69 SW16G29 29.83F NANTUCKET CLOUDY 45 32 60 SW18G24 29.93F PROVIDENCE PTSUNNY 40 25 55 W18 29.92F HARTFORD PTSUNNY 40 25 55 SW15G26 29.89F ALBANY FLURRIES 39 26 59 SW16 29.87F NEW YORK CITY CLOUDY 44 23 43 W16G28 29.99F $$ ANZ081-ANZ082-ANZ150-NHZ014-MEZ023>029-211900- COASTAL MARINE OBSERVATIONS STATION/POSITION TIME TEMP WIND PRES WAVE AIR SEA DIR/SP/G HT/PER (UTC) (F) (DEG/KT/KT) (MB) (FT/S) MOUNT DESERT ROC 1800 37 220/ 24/ 28 1008.9F MATINICUS ROCK 1700 37 250/ 25/ 29 1009.7F ISLE OF SHOALS 1700 36 220/ 27/ 31 1010.9F CASHES LEDGE BUO 1750 40 49 1010.2F 5/ 6 $$ .............KEY.............. WCI - WIND CHILL TC - TEMPERATURE IN CELSIUS VSB - VISIBILITY IN MILES HX - HEAT INDEX FAIR- INDICATES FEW OR NO CLOUDS BELOW 12,000 FT, WITH NO SIGNIFICANT WEATHER AND/OR OBSTRUCTIONS TO VISIBILITY. ASUS41 KGYX 211810 RWRGYX WEATHER ROUNDUP FOR MAINE AND NEW HAMPSHIRE NATIONAL WEATHER SERVICE GRAY ME 100 PM EST WED NOV 21 2018 MEZ002-005-006-010-012-015-018-020-021-024-026-027-029-211900- MAINE CITY SKY/WX TMP DP RH WIND PRES REMARKS PORTLAND CLOUDY 33 28 81 S13G22 29.81F 6HR MIN TEMP: 25; 6HR MAX TEMP: 33; SANFORD FAIR 34 29 82 SW14 29.81F BAR HARBOR CLOUDY 32 23 69 SW12G21 29.80F WISCASSET CLOUDY 33 28 81 SW7 29.82F 6HR MIN TEMP: 21; 6HR MAX TEMP: 33; ROCKLAND CLOUDY 33 26 75 W13 29.80F FRYEBURG LGT SNOW 30 26 85 VRB3 29.76F FOG 6HR MIN TEMP: 15; 6HR MAX TEMP: 31; 6HR PCP: TRACE; LEWISTONAUBURN CLOUDY 33 25 72 S9 29.78F AUGUSTA CLOUDY 31 22 69 SW12G22 29.77F 6HR MIN TEMP: 23; 6HR MAX TEMP: 31; WATERVILLE PTSUNNY 31 23 72 MISG 29.73F BANGOR CLOUDY 30 21 69 S9 29.77F 6HR MIN TEMP: 22; 6HR MAX TEMP: 30; GREENVILLE N/A 25 16 68 VRB7 29.63F 6HR MIN TEMP: 14; 6HR MAX TEMP: 25; MILLINOCKET CLOUDY 28 16 60 SW3 29.74F 6HR MIN TEMP: 21; 6HR MAX TEMP: 28; HOULTON CLOUDY 24 15 68 SW9 29.72F 6HR MIN TEMP: 20; 6HR MAX TEMP: 25; 6HR PCP: TRACE; PRESQUE ISLE PTSUNNY 24 13 62 W10 29.72F WCI 14 6HR MIN TEMP: 20; 6HR MAX TEMP: 26; 6HR PCP: TRACE; FRENCHVILLE CLOUDY 21 8 57 SW15 29.66F WCI 8 6HR MIN TEMP: 18; 6HR MAX TEMP: 22; 6HR PCP: TRACE; CARIBOU CLOUDY 23 10 57 W9 29.70F 6HR MIN TEMP: 19; 6HR MAX TEMP: 24; $$ NHZ002-005-008-009-011-012-014-211900- NEW HAMPSHIRE CITY SKY/WX TMP DP RH WIND PRES REMARKS PORTSMOUTH CLOUDY 34 28 79 S8 29.82F ROCHESTER CLOUDY 32 30 92 S6 29.81F 6HR MIN TEMP: 23; 6HR MAX TEMP: 32; NASHUA PTSUNNY 37 30 75 VRB6 29.83F MANCHESTER CLOUDY 35 29 78 S9 29.81F 6HR MIN TEMP: 26; 6HR MAX TEMP: 35; CONCORD CLOUDY 31 30 96 S8 29.81F 6HR MIN TEMP: 17; 6HR MAX TEMP: 31; 6HR PCP: TRACE; LACONIA LGT SNOW 32 28 85 SW13 29.77F FOG PLYMOUTH LGT SNOW 29 27 92 NE3 29.77F BERLIN CLOUDY 32 23 69 SW8G18 29.65F 6HR MIN TEMP: 11; 6HR MAX TEMP: 33; 6HR PCP: TRACE; WHITEFIELD CLOUDY 32 25 75 SW9G18 29.67F 6HR MIN TEMP: 21; 6HR MAX TEMP: 32; 6HR PCP: TRACE; JAFFREY PTSUNNY 32 29 88 SW10 29.80F 6HR MIN TEMP: 24; 6HR MAX TEMP: 33; KEENE PTSUNNY 35 27 72 S12 29.82F LEBANON CLOUDY 33 26 75 S10 29.75F 6HR MIN TEMP: 19; 6HR MAX TEMP: 33; 6HR PCP: 0.02; MT WASHINGTON SNOWSHWR 9 9 100 W45G56 N/A VSB 1/16WCI -18 6HR MIN TEMP: 1; 6HR MAX TEMP: 9; 6HR PCP: 0.21; $$ VTZ005-007-008-211900- VERMONT CITY SKY/WX TMP DP RH WIND PRES REMARKS ST JOHNSBURY N/A 29 26 89 MISG 29.68F MONTPELIER LGT SNOW 30 27 88 W12G20 29.73F FOG BURLINGTON PTSUNNY 31 26 82 SW3 29.76F $$ MAZ007-012-024-CTZ003-RIZ002-NYZ038-NYZ072-211900- SOUTHERN NEW ENGLAND AND NY CITY SKY/WX TMP DP RH WIND PRES REMARKS BOSTON CLOUDY 41 25 53 SW18G24 29.87F WORCESTER CLOUDY 33 24 69 SW16G29 29.83F NANTUCKET CLOUDY 45 32 60 SW18G24 29.93F PROVIDENCE PTSUNNY 40 25 55 W18 29.92F HARTFORD PTSUNNY 40 25 55 SW15G26 29.89F ALBANY FLURRIES 39 26 59 SW16 29.87F NEW YORK CITY CLOUDY 44 23 43 W16G28 29.99F $$ ANZ081-ANZ082-ANZ150-NHZ014-MEZ023>029-211900- COASTAL MARINE OBSERVATIONS STATION/POSITION TIME TEMP WIND PRES WAVE AIR SEA DIR/SP/G HT/PER (UTC) (F) (DEG/KT/KT) (MB) (FT/S) MOUNT DESERT ROC 1800 37 220/ 24/ 28 1008.9F MATINICUS ROCK 1700 37 250/ 25/ 29 1009.7F ISLE OF SHOALS 1700 36 220/ 27/ 31 1010.9F CASHES LEDGE BUO 1750 40 49 1010.2F 5/ 6 $$ .............KEY.............. WCI - WIND CHILL TC - TEMPERATURE IN CELSIUS VSB - VISIBILITY IN MILES HX - HEAT INDEX FAIR- INDICATES FEW OR NO CLOUDS BELOW 12,000 FT, WITH NO SIGNIFICANT WEATHER AND/OR OBSTRUCTIONS TO VISIBILITY.
Office: OKX ASUS41 KOKX 211805 RWROKX Regional Weather Roundup National Weather Service New York NY 100 PM EST WED NOV 21 2018 Note: "FAIR" indicates few or no clouds below 12,000 feet with no significant weather and/or obstructions to visibility. NYZ071-072-176-178-NJZ106-104-211900- New York City Metro Area CITY SKY/WX TMP DP RH WIND PRES REMARKS Central Park CLOUDY 44 25 47 MISG 30.01F Bronx Lehman C N/A 43 25 49 W15 N/A LaGuardia Arpt CLOUDY 44 23 43 W16G28 29.99F Queens College N/A 43 27 52 W18 N/A Kennedy Intl PTSUNNY 45 27 49 W21G33 30.01F Breezy Point N/A 43 N/A N/A W15G25 N/A Brooklyn Coll N/A 43 27 52 W20 N/A Staten Island N/A 43 27 52 W16 N/A Newark/Liberty PTSUNNY 45 25 45 SW18G29 30.00F Teterboro CLOUDY 45 26 47 W15G24 29.99F $$ NYZ177-179-078>081-211900- Long Island New York CITY SKY/WX TMP DP RH WIND PRES REMARKS Jones Beach N/A 43 N/A N/A W16G24 N/A Wantagh N/A 43 27 52 W14 N/A Hempstead N/A 45 30 57 S9 30.02S Matinecock Pt N/A 43 N/A N/A W25G31 N/A Farmingdale PTSUNNY 43 25 49 W16G24 29.98F MacArthur/ISP CLOUDY 43 26 51 W15 29.97F Stony Brook N/A 43 27 52 W7 N/A Shirley CLOUDY 1 N/A N/A SW12G20 29.97F WCI -16 Mt Sinai Harb N/A N/A N/A N/A W9 N/A Westhampton CLOUDY 43 26 51 SW14 29.99F East Hampton CLOUDY 42 25 51 W12G17 29.96F Southold N/A 43 28 56 W7G18 N/A Montauk N/A 42 26 53 W13G22 29.96F $$ NYZ052-065-067-211900- Hudson Valley CITY SKY/WX TMP DP RH WIND PRES REMARKS White Plains PTSUNNY 41 23 48 W12G22 29.95F Larchmont Harb N/A 41 N/A N/A SW20G28 N/A Croton On Huds N/A 41 N/A N/A W14 N/A Somers N/A 39 27 60 W8 N/A WCI 34 Brewster N/A 39 27 60 W7G18 N/A WCI 34 Newburgh CLOUDY 39 28 65 W17G29 29.94F WCI 30 Montgomery CLOUDY 41 26 55 W15 29.93F Otisville N/A 37 27 65 SW8 N/A WCI 31 Warwick N/A 41 27 56 W14 N/A Suffern N/A 39 27 60 W10 N/A WCI 32 Poughkeepsie CLOUDY 41 25 53 W15 29.94F Albany FLURRIES 39 26 59 SW16 29.87F WCI 30 $$ NJZ001-105-106-008-010-013-015-019>022-104-211900- New Jersey CITY SKY/WX TMP DP RH WIND PRES REMARKS Newark/Liberty PTSUNNY 45 25 45 SW18G29 30.00F Teterboro CLOUDY 45 26 47 W15G24 29.99F Caldwell PTSUNNY 41 25 53 W9G17 30.00F Somerville CLOUDY 43 25 49 W8G23 30.00F Linden CLOUDY 44 24 46 W14G26 30.01S Perth Amboy N/A 43 N/A N/A W22G28 N/A Sussex CLOUDY 42 27 55 W8 29.97R Andover N/A 41 25 53 VRB7 29.98F Trenton CLOUDY 46 26 45 W12G23 30.02F Millville FAIR 48 29 47 W14G25 30.08F Atlantic City FAIR 49 28 44 W15G31 30.05F Wrightstown NOT AVBL Toms River CLOUDY 47 27 45 W14G28 30.03F Belmar CLOUDY 43 26 51 W15 30.02F $$ PAZ047>061-062-071-211900- Eastern Pennsylvania CITY SKY/WX TMP DP RH WIND PRES REMARKS Philadelphia PTSUNNY 47 27 45 SW16 30.06F Allentown CLOUDY 44 26 49 W15G22 30.03F Scranton CLOUDY 36 26 67 W17G24 29.98F WCI 26 $$ CTZ002-004>006-009-010-012-RIZ004-006-007-MAZ004-011-015-211900- Southern New England In CT CITY SKY/WX TMP DP RH WIND PRES REMARKS Bradley Intl PTSUNNY 40 25 55 SW15G26 29.89F WCI 32 Hartford CLOUDY 42 25 50 SW9 29.92F Danbury CLOUDY 40 25 55 W13G21 29.95F WCI 32 Wtrbury/Oxford CLOUDY 38 25 59 W12G17 29.92F WCI 30 Norwalk Harbor N/A 41 N/A N/A SW21G29 N/A Bridgeport CLOUDY 43 26 51 W16G22 29.96F Meriden CLOUDY 41 24 51 SW10G22 29.94F New Haven CLOUDY 43 26 51 SW10G21 29.96F Chester FAIR 41 23 48 SW9G23 29.93F Groton CLOUDY 42 28 57 W22G29 29.93F Willimantic CLOUDY 39 26 59 SW7 29.91F WCI 34 In RI CITY SKY/WX TMP DP RH WIND PRES REMARKS Providence PTSUNNY 40 25 55 W18 29.92F WCI 31 Block Island CLOUDY N/A N/A N/A W21 29.94 Westerly PTSUNNY 43 29 57 W16G24 29.93F In MA CITY SKY/WX TMP DP RH WIND PRES REMARKS Boston CLOUDY 41 25 53 SW18G24 29.87F Worcester CLOUDY 33 24 69 SW16G29 29.83F WCI 23 Westfield CLOUDY 38 24 57 SW14 29.87F WCI 30 Provincetown FAIR 41 29 62 SW20 29.90F Nantucket CLOUDY 45 32 60 SW18G24 29.93F $$ ANZ330-335-338-340-345-350-353-355-211900- Coastal Marine Observations STATION/POSITION TIME SKY/WX TEMP WIND PRES VSBY WAVE AIR SEA DIR/SP/G HT/PER (UTC) (F) (DEG/KT/KT) (MB) (MI) (FT/S) NY Harb Entrance 1750 44 51 260/ 19/ 23 1016.1 3/ 3 20 S Fire Island 1750 44 53 260/ 17/ 21 1016.0 4/ 5 Great South Bay 1730 42 43 260/ 17/ 21 N/A 23 SSW Montauk P 1750 43 53 250/ 25/ 29 1014.8 6/ 6 15 E Barnegat Li NOT AVBL Hudson Canyon 1750 45 260/ 19/ 23 1017.1 5/ 6 Kings Point 1748 49 300/ 16/ 21 1016.4 Execution Rocks 1730 49 240/ 16/ 23 N/A Western LI Sound 1650 43 250/ 19/ 27 N/A 2/ 3 Central LI Sound 1700 43 52 250/ 21/ 27 N/A 5/ 5 Robbins Reef 1748 43 270/ 23/ 27 1016.3 $$ >>>>>>>>>>>>>>>>>>>>>>>>>>>> KEY <<<<<<<<<<<<<<<<<<<<<<<<<<< > < > SKY/WX - Sky Condition/Present Weather < > TMP - Temperature in Fahrenheit < > DP - Dew Point in Fahrenheit < > RH - Relative Humidity in Percent < > WIND - Direction (from) and Speed in MPH < > PRES - Mean Sea Level Pressure (inches of Hg) < > WCI - Wind Chill Index < > VSB - Visibility in Miles < > HX - Heat Index < > TC - Temperature in Celsius < > VRB - Variable Wind Direction < > < >>>>>>>>>>>>>>>>>>>>>>>>>>>> KEY <<<<<<<<<<<<<<<<<<<<<<<<<<< ASUS41 KOKX 211814 RWROKX Regional Weather Roundup National Weather Service New York NY 100 PM EST WED NOV 21 2018 Note: "FAIR" indicates few or no clouds below 12,000 feet with no significant weather and/or obstructions to visibility. NYZ071-072-176-178-NJZ106-104-211900- New York City Metro Area CITY SKY/WX TMP DP RH WIND PRES REMARKS Central Park CLOUDY 44 25 47 MISG 30.01F Bronx Lehman C N/A 43 27 52 W13G25 N/A LaGuardia Arpt CLOUDY 44 23 43 W16G28 29.99F Queens College N/A 43 27 52 W15 N/A Kennedy Intl PTSUNNY 45 27 49 W21G33 30.01F Breezy Point N/A 43 N/A N/A W15G25 N/A Brooklyn Coll N/A 43 27 52 W20 N/A Staten Island N/A 43 27 52 W14 N/A Newark/Liberty PTSUNNY 45 25 45 SW18G29 30.00F Teterboro CLOUDY 45 26 47 W15G24 29.99F $$ NYZ177-179-078>081-211900- Long Island New York CITY SKY/WX TMP DP RH WIND PRES REMARKS Jones Beach N/A 43 N/A N/A W16G24 N/A Wantagh N/A 45 28 53 W13 N/A Hempstead N/A 45 28 53 SW12 30.02S Matinecock Pt N/A 43 N/A N/A W25G31 N/A Farmingdale PTSUNNY 43 25 49 W16G24 29.98F MacArthur/ISP CLOUDY 43 26 51 W15 29.97F Stony Brook N/A 43 27 52 W8 N/A Shirley CLOUDY 1 N/A N/A SW12G20 29.97F WCI -16 Mt Sinai Harb N/A N/A N/A N/A W9 N/A Westhampton CLOUDY 43 26 51 SW14 29.99F East Hampton CLOUDY 42 25 51 W12G17 29.96F Southold N/A 43 28 56 W9 N/A Montauk N/A 42 26 53 W13G22 29.96F $$ NYZ052-065-067-211900- Hudson Valley CITY SKY/WX TMP DP RH WIND PRES REMARKS White Plains PTSUNNY 41 23 48 W12G22 29.95F Larchmont Harb N/A 41 N/A N/A SW20G28 N/A Croton On Huds N/A 41 N/A N/A W14 N/A Somers N/A 39 28 65 W7G18 N/A WCI 34 Brewster N/A 39 27 60 W6 N/A WCI 35 Newburgh CLOUDY 39 28 65 W17G29 29.94F WCI 30 Montgomery CLOUDY 41 26 55 W15 29.93F Otisville N/A 37 27 65 SW12G30 N/A WCI 30 Warwick N/A 41 27 56 W15 N/A Suffern N/A 39 28 65 W7 N/A WCI 34 Poughkeepsie CLOUDY 41 25 53 W15 29.94F Albany FLURRIES 39 26 59 SW16 29.87F WCI 30 $$ NJZ001-105-106-008-010-013-015-019>022-104-211900- New Jersey CITY SKY/WX TMP DP RH WIND PRES REMARKS Newark/Liberty PTSUNNY 45 25 45 SW18G29 30.00F Teterboro CLOUDY 45 26 47 W15G24 29.99F Caldwell PTSUNNY 41 25 53 W9G17 30.00F Somerville CLOUDY 43 25 49 W8G23 30.00F Linden CLOUDY 44 24 46 W14G26 30.01S Perth Amboy N/A 43 N/A N/A W22G28 N/A Sussex CLOUDY 42 27 55 W8 29.97R Andover N/A 41 25 53 VRB7 29.98F Trenton CLOUDY 46 26 45 W12G23 30.02F Millville FAIR 48 29 47 W14G25 30.08F Atlantic City FAIR 49 28 44 W15G31 30.05F Wrightstown PTSUNNY 45 27 49 W14 30.00F Toms River CLOUDY 47 27 45 W14G28 30.03F Belmar CLOUDY 43 26 51 W15 30.02F $$ PAZ047>061-062-071-211900- Eastern Pennsylvania CITY SKY/WX TMP DP RH WIND PRES REMARKS Philadelphia PTSUNNY 47 27 45 SW16 30.06F Allentown CLOUDY 44 26 49 W15G22 30.03F Scranton CLOUDY 36 26 67 W17G24 29.98F WCI 26 $$ CTZ002-004>006-009-010-012-RIZ004-006-007-MAZ004-011-015-211900- Southern New England In CT CITY SKY/WX TMP DP RH WIND PRES REMARKS Bradley Intl PTSUNNY 40 25 55 SW15G26 29.89F WCI 32 Hartford CLOUDY 42 25 50 SW9 29.92F Danbury CLOUDY 40 25 55 W13G21 29.95F WCI 32 Wtrbury/Oxford CLOUDY 38 25 59 W12G17 29.92F WCI 30 Norwalk Harbor N/A 41 N/A N/A SW21G29 N/A Bridgeport CLOUDY 43 26 51 W16G22 29.96F Meriden CLOUDY 41 24 51 SW10G22 29.94F New Haven CLOUDY 43 26 51 SW10G21 29.96F Chester FAIR 41 23 48 SW9G23 29.93F Groton CLOUDY 42 28 57 W22G29 29.93F Willimantic CLOUDY 39 26 59 SW7 29.91F WCI 34 In RI CITY SKY/WX TMP DP RH WIND PRES REMARKS Providence PTSUNNY 40 25 55 W18 29.92F WCI 31 Block Island CLOUDY N/A N/A N/A W21 29.94 Westerly PTSUNNY 43 29 57 W16G24 29.93F In MA CITY SKY/WX TMP DP RH WIND PRES REMARKS Boston CLOUDY 41 25 53 SW18G24 29.87F Worcester CLOUDY 33 24 69 SW16G29 29.83F WCI 23 Westfield CLOUDY 38 24 57 SW14 29.87F WCI 30 Provincetown FAIR 41 29 62 SW20 29.90F Nantucket CLOUDY 45 32 60 SW18G24 29.93F $$ ANZ330-335-338-340-345-350-353-355-211900- Coastal Marine Observations STATION/POSITION TIME SKY/WX TEMP WIND PRES VSBY WAVE AIR SEA DIR/SP/G HT/PER (UTC) (F) (DEG/KT/KT) (MB) (MI) (FT/S) NY Harb Entrance 1750 44 51 260/ 19/ 23 1016.1 3/ 3 20 S Fire Island 1750 44 53 260/ 17/ 21 1016.0 4/ 5 Great South Bay 1730 42 43 260/ 17/ 21 N/A 23 SSW Montauk P 1750 43 53 250/ 25/ 29 1014.8 6/ 6 15 E Barnegat Li NOT AVBL Hudson Canyon 1750 45 260/ 19/ 23 1017.1 5/ 6 Kings Point 1748 49 300/ 16/ 21 1016.4 Execution Rocks 1745 49 250/ 16/ 21 N/A Western LI Sound 1745 44 250/ 19/ 27 N/A 2/ 3 Central LI Sound 1730 43 52 250/ 21/ 27 N/A 5/ 5 Robbins Reef 1748 43 270/ 23/ 27 1016.3 $$ >>>>>>>>>>>>>>>>>>>>>>>>>>>> KEY <<<<<<<<<<<<<<<<<<<<<<<<<<< > < > SKY/WX - Sky Condition/Present Weather < > TMP - Temperature in Fahrenheit < > DP - Dew Point in Fahrenheit < > RH - Relative Humidity in Percent < > WIND - Direction (from) and Speed in MPH < > PRES - Mean Sea Level Pressure (inches of Hg) < > WCI - Wind Chill Index < > VSB - Visibility in Miles < > HX - Heat Index < > TC - Temperature in Celsius < > VRB - Variable Wind Direction < > < >>>>>>>>>>>>>>>>>>>>>>>>>>>> KEY <<<<<<<<<<<<<<<<<<<<<<<<<<<